This is the latest recevied weather packets stored in our database for station/object HA2SKA-1. If no packets are shown the sender has not sent any weather packets the latest 10 day(s).
| Time | Temp. | Humidity | Pressure | Rain* | Wind** | Luminosity | Snow |
|---|---|---|---|---|---|---|---|
| 1788445214 | 31.11° C | 41% | 1020.5 hPa | - | - | - | - |
| 1788444314 | 32.22° C | 39% | 1020.5 hPa | - | - | - | - |
| 1788443414 | 31.11° C | 42% | 1020.8 hPa | - | - | - | - |
| 1788442514 | 30° C | 43% | 1021 hPa | - | - | - | - |
| 1788441614 | 29.44° C | 44% | 1021 hPa | - | - | - | - |
| 1788440714 | 31.11° C | 42% | 1021.1 hPa | - | - | - | - |
| 1788439814 | 31.67° C | 40% | 1021.2 hPa | - | - | - | - |
| 1788438913 | 32.22° C | 39% | 1021.2 hPa | - | - | - | - |
| 1788438013 | 32.22° C | 40% | 1021.3 hPa | - | - | - | - |
| 1788437113 | 30.56° C | 41% | 1021.6 hPa | - | - | - | - |
| 1788436213 | 30.56° C | 44% | 1021.6 hPa | - | - | - | - |
| 1788435313 | 30° C | 44% | 1021.6 hPa | - | - | - | - |
| 1788434413 | 31.11° C | 41% | 1021.8 hPa | - | - | - | - |
| 1788433513 | 29.44° C | 43% | 1021.9 hPa | - | - | - | - |
| 1788432613 | 28.33° C | 48% | 1022.2 hPa | - | - | - | - |
| 1788431713 | 27.78° C | 53% | 1022.5 hPa | - | - | - | - |
| 1788430813 | 28.89° C | 50% | 1022.6 hPa | - | - | - | - |
| 1788429913 | 27.78° C | 55% | 1022.9 hPa | - | - | - | - |
| 1788429012 | 27.78° C | 54% | 1022.9 hPa | - | - | - | - |
| 1788428112 | 26.11° C | 58% | 1023.1 hPa | - | - | - | - |
| 1788427212 | 26.11° C | 58% | 1023.2 hPa | - | - | - | - |
| 1788426312 | 25.56° C | 62% | 1023.3 hPa | - | - | - | - |
| 1788425412 | 25.56° C | 61% | 1023.2 hPa | - | - | - | - |
| 1788424512 | 25° C | 66% | 1023.2 hPa | - | - | - | - |
| 1788423612 | 25.56° C | 62% | 1023.5 hPa | - | - | - | - |
* Rain since midnight (hover to see other rain measurements)
** Current wind speed in m/s (hover to see current wind gust speed)